Location: Newark
(45.7667°N, 11.5167°E)
Time: 11:36:32
(UTC+00:00)

Envisat - Pass Details

Date: 31 January 2020
Orbit: 764 x 766 km, 98.1° (Epoch: 23 February)

Event Time Altitude Azimuth Distance (km) Brightness Sun altitude
Rises 05:47:51 0° 15° (NNE) 3,243 6.2 -9.0°
Reaches altitude 10° 05:50:11 10° 18° (NNE) 2,312 5.5 -8.6°
Maximum altitude 05:55:15 68° 102° (ESE) 827 3.5 -7.7°
Drops below altitude 10° 06:00:18 10° 185° (S) 2,294 5.7 -6.9°
Sets 06:02:36 0° 188° (S) 3,216 6.4 -6.5°
